Chicago DuPage, IL

7:41 PM CST on November 17, 2019 (GMT -0600)
Du Page

Weather History for KDPA - October, 2019

Change the Weather History Date:

Monday, October 21, 2019

  Actual Average Record
Temperature  
Mean Temperature 60 °F 51 °F  
Max Temperature 68 °F 61 °F 79 °F (2007)
Min Temperature 51 °F 40 °F 23 °F (2018)
Degree Days  
Heating Degree Days 5 14  
Month to date heating degree days 213 239  
Since 1 July heating degree days 220 350  
Cooling Degree Days 0 0  
Month to date cooling degree days 17 11  
Year to date cooling degree days 1003 814  
Growing Degree Days 9 (Base 50)    
Moisture  
Dew Point 49 °F    
Average Humidity 73    
Maximum Humidity 93    
Minimum Humidity 44    
Precipitation  
Precipitation 0.27 in 0.11 in 0.34 in (2006)
Month to date precipitation 3.69 2.23  
Year to date precipitation 37.94 31.15  
Sea Level Pressure  
Sea Level Pressure 29.56 in    
Wind  
Wind Speed 17 mph (SSE)    
Max Wind Speed 35 mph    
Max Gust Speed 49 mph    
Visibility 7 miles    
Events Rain    
T = Trace of Precipitation, MM = Missing Value Source: NWS Daily Summary

Daily Weather History Graph

Daily Weather History Graph

Search for Another Location

Airport or City:

Astronomy

Oct. 21, 2019 Rise Set
Actual Time 7:12 AM CDT 6:02 PM CDT
Civil Twilight 6:43 AM CDT 6:30 PM CDT
Nautical Twilight 6:11 AM CDT 7:03 PM CDT
Astronomical Twilight 5:38 AM CDT 7:35 PM CDT
Moon No Moon Rise 2:33 PM CDT (10/21)
Length of Visible Light 11h 47m
Length of Day
10h 50m
Waning Gibbous, 48% of the Moon is Illuminated
Oct 21
Waning Gibbous
Oct 27
New
Nov 4
First Quarter
Nov 12
Full
Nov 19
Last Quarter

Hourly Weather History & Observations

Time (CDT) Temp. Dew Point Humidity Pressure Visibility Wind Dir Wind Speed Gust Speed Precip Events Conditions
12:52 AM 52.0 °F 48.9 °F 89% 29.83 in 1.5 mi East 10.4 mph - N/A   Overcast
1:14 AM 52.0 °F 50.0 °F 93% 29.81 in 2.5 mi ENE 9.2 mph - N/A   Overcast
1:36 AM 52.0 °F 50.0 °F 93% 29.83 in 3.0 mi East 6.9 mph - N/A   Overcast
1:52 AM 53.1 °F 50.0 °F 89% 29.82 in 3.0 mi East 8.1 mph - N/A   Overcast
2:52 AM 53.1 °F 50.0 °F 89% 29.79 in 4.0 mi ENE 9.2 mph - N/A   Overcast
3:35 AM 54.0 °F 51.1 °F 90% 29.76 in 5.0 mi East 9.2 mph - N/A   Overcast
3:52 AM 54.0 °F 51.1 °F 90% 29.74 in 5.0 mi East 10.4 mph - N/A   Overcast
4:52 AM 57.0 °F 50.0 °F 77% 29.70 in 9.0 mi East 11.5 mph - N/A   Overcast
5:52 AM 59.0 °F 48.9 °F 69% 29.66 in 10.0 mi ESE 11.5 mph - N/A   Overcast
6:52 AM 59.0 °F 48.9 °F 69% 29.62 in 10.0 mi ESE 11.5 mph - N/A   Mostly Cloudy
7:52 AM 61.0 °F 51.1 °F 70% 29.56 in 10.0 mi ESE 16.1 mph 25.3 mph N/A   Overcast
8:29 AM 59.0 °F 53.1 °F 81% 29.53 in 2.0 mi ESE 12.7 mph 28.8 mph 0.06 in Rain Heavy Rain
8:52 AM 59.0 °F 53.1 °F 81% 29.51 in 9.0 mi ESE 13.8 mph 25.3 mph 0.08 in Rain Light Rain
9:52 AM 61.0 °F 54.0 °F 78% 29.44 in 10.0 mi SE 17.3 mph 28.8 mph 0.00 in   Overcast
10:52 AM 63.0 °F 55.9 °F 78% 29.43 in 10.0 mi SSE 20.7 mph 36.8 mph N/A   Overcast
11:52 AM 63.0 °F 55.9 °F 78% 29.42 in 10.0 mi SSE 19.6 mph 32.2 mph N/A   Overcast
12:52 PM 63.0 °F 57.0 °F 81% 29.40 in 4.0 mi South 19.6 mph 29.9 mph 0.03 in Rain Light Rain
1:45 PM 63.0 °F 57.9 °F 84% 29.41 in 2.5 mi South 18.4 mph 27.6 mph 0.10 in Rain Light Rain
1:49 PM 62.6 °F 57.2 °F 82% 29.41 in 1.5 mi South 18.4 mph 32.2 mph 0.13 in Rain Heavy Rain
1:52 PM 62.1 °F 57.0 °F 84% 29.40 in 1.2 mi South 18.4 mph 32.2 mph 0.16 in Rain Heavy Rain
1:57 PM 62.1 °F 57.0 °F 84% 29.40 in 7.0 mi SSW 19.6 mph 32.2 mph 0.00 in   Overcast
2:11 PM 64.0 °F 57.9 °F 80% 29.40 in 7.0 mi SSW 16.1 mph 31.1 mph 0.00 in   Mostly Cloudy
2:52 PM 66.9 °F 54.0 °F 63% 29.40 in 10.0 mi SSW 25.3 mph 39.1 mph 0.00 in   Clear
3:52 PM 66.9 °F 44.1 °F 44% 29.42 in 10.0 mi SSW 26.5 mph 39.1 mph N/A   Clear
4:52 PM 63.0 °F 41.0 °F 45% 29.44 in 10.0 mi SW 27.6 mph 40.3 mph N/A   Clear
5:52 PM 61.0 °F 42.1 °F 50% 29.48 in 10.0 mi SSW 16.1 mph 26.5 mph N/A   Overcast
6:52 PM 57.9 °F 41.0 °F 53% 29.52 in 10.0 mi SW 18.4 mph 33.4 mph N/A   Mostly Cloudy
7:52 PM 55.0 °F 37.9 °F 53% 29.55 in 10.0 mi SW 23.0 mph 33.4 mph N/A   Mostly Cloudy
8:52 PM 55.0 °F 37.9 °F 53% 29.55 in 10.0 mi SW 19.6 mph 27.6 mph N/A   Overcast
9:52 PM 54.0 °F 37.9 °F 55% 29.54 in 10.0 mi SSW 16.1 mph 24.2 mph N/A   Mostly Cloudy
10:52 PM 52.0 °F 39.0 °F 61% 29.53 in 10.0 mi SSW 15.0 mph - N/A   Partly Cloudy
11:52 PM 51.1 °F 39.0 °F 63% 29.51 in 10.0 mi South 15.0 mph 25.3 mph N/A   Partly Cloudy